FW0403 Weather Reports


Display with metric or nautical units.
time (UTC)temp
F
wind
direction
speed
MPH
gust
MPH
rain 1hr
in
rain 24hr
in
rain mn
in
humidity
%
barometer
mb
20260505200821 82 187 10.0 14.0 0.00 0.00 0.00 80 1008.6
20260505200311 82 2 10.0 13.0 0.00 0.00 0.00 80 1008.7
20260505195808 82 193 10.0 14.0 0.00 0.00 0.00 79 1008.6
20260505195256 82 182 11.0 14.0 0.00 0.00 0.00 80 1008.5
20260505194742 82 190 11.0 15.0 0.00 0.00 0.00 80 1008.7
20260505193623 82 2 11.0 15.0 0.00 0.00 0.00 79 1008.6
20260505193125 82 2 11.0 15.0 0.00 0.00 0.00 80 1008.7
20260505191951 82 190 12.0 16.0 0.00 0.00 0.00 80 1008.7
20260505191437 82 167 12.0 16.0 0.00 0.00 0.00 80 1008.8
20260505190924 82 2 12.0 16.0 0.00 0.00 0.00 80 1008.8
20260505190425 82 2 11.0 16.0 0.00 0.00 0.00 80 1008.8
20260505185911 82 2 11.0 14.0 0.00 0.00 0.00 80 1009.0
20260505185403 82 2 11.0 16.0 0.00 0.00 0.00 80 1009.1
20260505184847 82 2 11.0 16.0 0.00 0.00 0.00 80 1009.1
20260505183712 81 198 11.0 16.0 0.00 0.00 0.00 80 1009.2
20260505183214 81 190 11.0 14.0 0.00 0.00 0.00 80 1009.2
20260505182716 81 2 12.0 15.0 0.00 0.00 0.00 81 1009.2
20260505182206 81 2 12.0 15.0 0.00 0.00 0.00 81 1009.2
20260505181047 81 190 12.0 15.0 0.00 0.00 0.00 80 1009.2
20260505180538 81 193 10.0 15.0 0.00 0.00 0.00 80 1009.2
20260505180027 81 195 9.0 16.0 0.00 0.00 0.00 80 1009.3
20260505175511 81 2 11.0 16.0 0.00 0.00 0.00 80 1009.4
20260505175015 81 181 12.0 16.0 0.00 0.00 0.00 79 1009.3
20260505173906 82 188 11.0 15.0 0.00 0.00 0.00 79 1009.4
20260505172721 82 194 11.0 16.0 0.00 0.00 0.00 80 1009.7
20260505172213 81 183 12.0 17.0 0.00 0.00 0.00 80 1009.6
20260505171713 81 2 12.0 17.0 0.00 0.00 0.00 80 1009.5
20260505171153 81 2 12.0 17.0 0.00 0.00 0.00 80 1009.6
20260505170650 81 2 12.0 17.0 0.00 0.00 0.00 80 1009.6
20260505170158 81 2 12.0 17.0 0.00 0.00 0.00 80 1009.6
20260505165657 81 2 11.0 17.0 0.00 0.00 0.00 80 1009.7
20260505165150 81 200 11.0 15.0 0.00 0.00 0.00 80 1009.7
20260505164631 81 196 12.0 15.0 0.00 0.00 0.00 80 1009.8
20260505164125 81 191 11.0 15.0 0.00 0.00 0.00 80 1009.6
20260505163626 81 170 11.0 16.0 0.00 0.00 0.00 80 1009.6
20260505163117 81 179 12.0 16.0 0.00 0.00 0.00 80 1009.6
20260505162614 81 2 11.0 16.0 0.00 0.00 0.00 80 1009.5
20260505160813 81 2 11.0 17.0 0.00 0.00 0.00 80 1009.3
20260505160317 81 188 11.0 17.0 0.00 0.00 0.00 81 1009.5
20260505152620 80 169 12.0 15.0 0.00 0.00 0.00 81 1009.2
20260505152121 80 190 12.0 16.0 0.00 0.00 0.00 81 1009.2
20260505151624 80 2 12.0 16.0 0.00 0.00 0.00 81 1009.3
20260505151107 80 187 12.0 16.0 0.00 0.00 0.00 81 1009.3
20260505150552 80 186 12.0 16.0 0.00 0.00 0.00 81 1009.3
20260505140154 78 211 12.0 17.0 0.00 0.00 0.00 82 1009.1
20260505130142 78 180 14.0 18.0 0.00 0.00 0.00 82 1008.6
20260505124825 78 188 13.0 16.0 0.00 0.00 0.00 82 1008.6
20260505124306 78 196 13.0 19.0 0.00 0.00 0.00 82 1008.7
20260505123748 78 185 12.0 19.0 0.00 0.00 0.00 82 1008.9
20260505123243 78 198 13.0 19.0 0.00 0.00 0.00 82 1008.9
20260505122747 78 188 13.0 19.0 0.00 0.00 0.00 82 1008.7
20260505122252 78 192 13.0 17.0 0.00 0.00 0.00 82 1008.8
20260505121124 77 173 13.0 19.0 0.00 0.00 0.00 82 1008.6
20260505120608 77 173 13.0 19.0 0.00 0.00 0.00 82 1008.5
20260505120103 77 194 14.0 19.0 0.00 0.00 0.00 82 1008.5
20260505115549 77 187 12.0 18.0 0.00 0.00 0.00 82 1008.4
20260505115052 77 186 11.0 17.0 0.00 0.00 0.00 82 1008.5
20260505113910 77 182 11.0 17.0 0.00 0.00 0.00 82 1008.7
20260505113351 77 163 10.0 17.0 0.00 0.00 0.00 82 1009.0
20260505112857 77 207 11.0 17.0 0.00 0.00 0.00 82 1008.9
20260505112343 77 180 11.0 17.0 0.00 0.00 0.00 82 1008.6
20260505111840 77 175 11.0 17.0 0.00 0.00 0.00 82 1008.4
20260505111330 77 201 12.0 17.0 0.00 0.00 0.00 82 1008.4
20260505110823 77 196 12.0 17.0 0.00 0.00 0.00 82 1008.3
20260505110324 77 183 12.0 17.0 0.00 0.00 0.00 81 1008.2
20260505102219 77 202 11.0 17.0 0.00 0.00 0.00 81 1008.5
20260505101701 77 206 11.0 17.0 0.00 0.00 0.00 81 1008.4
20260505100523 77 188 10.0 16.0 0.00 0.00 0.00 81 1008.5
20260505100015 77 168 11.0 17.0 0.00 0.00 0.00 81 1008.6
20260505095456 77 189 11.0 17.0 0.00 0.00 0.00 81 1008.5
20260505094959 77 199 11.0 17.0 0.00 0.00 0.00 80 1008.5
20260505094505 77 183 11.0 17.0 0.00 0.00 0.00 80 1008.5
20260505092709 77 192 11.0 18.0 0.00 0.00 0.00 80 1008.5
20260505092148 77 212 11.0 18.0 0.00 0.00 0.00 80 1008.5
20260505091637 77 192 11.0 18.0 0.00 0.00 0.00 80 1008.4
20260505091118 77 202 11.0 18.0 0.00 0.00 0.00 80 1008.5
20260505090604 77 191 12.0 17.0 0.00 0.00 0.00 80 1008.4
20260505090106 77 198 12.0 19.0 0.00 0.00 0.00 80 1008.4
20260505085602 77 195 13.0 19.0 0.00 0.00 0.00 80 1008.3
20260505085108 77 177 12.0 20.0 0.00 0.00 0.00 80 1008.4
20260505084552 77 208 12.0 20.0 0.00 0.00 0.00 80 1008.4
20260505084059 77 208 12.0 20.0 0.00 0.00 0.00 80 1008.5
20260505083544 77 185 12.0 20.0 0.00 0.00 0.00 80 1008.6
20260505082419 77 177 13.0 20.0 0.00 0.00 0.00 80 1008.7
20260505081925 77 186 13.0 20.0 0.00 0.00 0.00 80 1008.8
20260505081410 77 180 13.0 18.0 0.00 0.00 0.00 80 1008.9
20260505080244 77 188 12.0 20.0 0.00 0.00 0.00 79 1009.0
20260505075724 77 212 12.0 20.0 0.00 0.00 0.00 79 1009.0
20260505075219 77 179 13.0 20.0 0.00 0.00 0.00 79 1009.0
20260505074718 77 194 13.0 19.0 0.00 0.00 0.00 79 1008.9
20260505074224 77 197 13.0 19.0 0.00 0.00 0.00 79 1008.9
20260505073705 77 173 13.0 20.0 0.00 0.00 0.00 79 1009.0
20260505072520 77 209 13.0 20.0 0.00 0.00 0.00 78 1009.3
20260505072024 77 183 12.0 20.0 0.00 0.00 0.00 78 1009.3
20260505071516 77 173 12.0 19.0 0.00 0.00 0.00 78 1009.4
20260505070356 77 180 12.0 20.0 0.00 0.00 0.00 78 1009.7
20260505065249 77 201 12.0 19.0 0.00 0.00 0.00 77 1009.7
20260505064733 77 186 11.0 20.0 0.00 0.00 0.00 78 1009.8
20260505063536 77 195 14.0 20.0 0.00 0.00 0.00 77 1009.9
20260505063025 77 196 13.0 19.0 0.00 0.00 0.00 77 1010.0
20260505062521 77 196 14.0 19.0 0.00 0.00 0.00 77 1010.0
20260505061336 77 190 13.0 20.0 0.00 0.00 0.00 77 1009.9
20260505060821 77 207 14.0 20.0 0.00 0.00 0.00 76 1010.1
20260505060300 77 212 13.0 18.0 0.00 0.00 0.00 76 1010.1
20260505055759 77 195 13.0 18.0 0.00 0.00 0.00 77 1010.1
20260505055249 77 213 14.0 21.0 0.00 0.00 0.00 76 1010.1
20260505054740 77 2 15.0 21.0 0.00 0.00 0.00 76 1010.0
20260505054221 77 192 15.0 21.0 0.00 0.00 0.00 77 1010.1
20260505053710 77 169 15.0 21.0 0.00 0.00 0.00 76 1010.1
20260505053209 77 183 15.0 21.0 0.00 0.00 0.00 76 1009.8
20260505052712 77 175 15.0 20.0 0.00 0.00 0.00 76 1010.1
20260505052207 77 217 15.0 20.0 0.00 0.00 0.00 76 1010.1
20260505051707 77 187 15.0 20.0 0.00 0.00 0.00 76 1010.2
20260505051204 77 200 15.0 20.0 0.00 0.00 0.00 75 1010.2
20260505050654 77 171 15.0 20.0 0.00 0.00 0.00 75 1010.3
20260505050140 77 182 15.0 21.0 0.00 0.00 0.00 75 1010.5
20260505041454 77 191 15.0 19.0 0.00 0.00 0.00 74 1010.7
20260505040323 77 169 14.0 19.0 0.00 0.00 0.00 74 1010.8
20260505035821 77 182 14.0 22.0 0.00 0.00 0.00 74 1010.8
20260505035327 77 186 14.0 22.0 0.00 0.00 0.00 74 1010.8
20260505034808 77 197 15.0 22.0 0.00 0.00 0.00 73 1010.8
20260505034310 77 194 15.0 22.0 0.00 0.00 0.00 73 1010.7
20260505033807 77 189 14.0 20.0 0.00 0.00 0.00 74 1010.8
20260505032626 77 191 15.0 20.0 0.00 0.00 0.00 73 1010.8
20260505032111 77 176 14.0 19.0 0.00 0.00 0.00 73 1011.0
20260505031610 77 197 14.0 19.0 0.00 0.00 0.00 73 1010.9
20260505025826 77 173 15.0 20.0 0.00 0.00 0.00 73 1011.0
20260505024001 77 190 14.0 19.0 0.00 0.00 0.00 73 1010.9
20260505023503 77 2 14.0 18.0 0.00 0.00 0.00 72 1010.9
20260505022956 77 187 14.0 18.0 0.00 0.00 0.00 72 1010.9
20260505022500 77 2 13.0 19.0 0.00 0.00 0.00 72 1010.9
20260505021958 77 195 13.0 19.0 0.00 0.00 0.00 72 1011.0
20260505021453 77 184 13.0 19.0 0.00 0.00 0.00 71 1010.9
20260505020931 77 184 13.0 19.0 0.00 0.00 0.00 72 1010.7
20260505020417 77 186 13.0 18.0 0.00 0.00 0.00 72 1010.7
20260505015922 77 2 13.0 17.0 0.00 0.00 0.00 72 1010.6
20260505015403 77 196 13.0 17.0 0.00 0.00 0.00 71 1010.7
20260505014906 77 2 13.0 17.0 0.00 0.00 0.00 71 1010.7
20260505014401 77 2 13.0 16.0 0.00 0.00 0.00 71 1010.7
20260505013846 77 2 12.0 16.0 0.00 0.00 0.00 71 1010.9
20260505013338 77 194 13.0 17.0 0.00 0.00 0.00 71 1010.7
20260505012822 77 188 13.0 17.0 0.00 0.00 0.00 70 1010.8
20260505012304 77 165 12.0 17.0 0.00 0.00 0.00 71 1010.6
20260505010523 77 190 12.0 16.0 0.00 0.00 0.00 70 1010.6
20260505010001 77 167 13.0 16.0 0.00 0.00 0.00 70 1010.4
20260505005447 77 2 12.0 16.0 0.00 0.00 0.00 69 1010.4
20260505004935 77 2 12.0 19.0 0.00 0.00 0.00 70 1010.3
20260505004434 77 191 12.0 19.0 0.00 0.00 0.00 69 1010.3
20260505003937 77 162 13.0 19.0 0.00 0.00 0.00 69 1010.3
20260505002747 77 2 12.0 16.0 0.00 0.00 0.00 69 1010.5
20260505002224 77 2 11.0 16.0 0.00 0.00 0.00 69 1010.6
20260505001712 77 2 11.0 16.0 0.00 0.00 0.00 69 1010.7
20260505001214 78 2 12.0 16.0 0.00 0.00 0.00 68 1010.7
20260505000712 78 2 12.0 16.0 0.00 0.00 0.00 68 1010.6
20260504235558 78 2 11.0 16.0 0.00 0.00 0.00 68 1010.6
20260504235051 78 181 11.0 16.0 0.00 0.00 0.00 68 1010.9
20260504234533 78 2 10.0 16.0 0.00 0.00 0.00 68 1011.0
20260504234038 78 2 11.0 16.0 0.00 0.00 0.00 67 1011.0
20260504233519 78 2 11.0 16.0 0.00 0.00 0.00 66 1011.0
20260504233006 78 186 10.0 15.0 0.00 0.00 0.00 66 1011.1
20260504232506 78 2 10.0 15.0 0.00 0.00 0.00 66 1011.2
20260504232013 78 2 10.0 15.0 0.00 0.00 0.00 68 1011.3
20260504231512 78 2 10.0 14.0 0.00 0.00 0.00 66 1011.3
20260504231018 78 2 10.0 14.0 0.00 0.00 0.00 67 1011.4
20260504225852 78 2 10.0 13.0 0.00 0.00 0.00 66 1011.3
20260504225351 78 180 9.0 13.0 0.00 0.00 0.00 66 1011.3
20260504224855 79 186 9.0 13.0 0.00 0.00 0.00 65 1011.5
20260504223734 79 181 9.0 13.0 0.00 0.00 0.00 65 1011.7
20260504223220 79 2 9.0 13.0 0.00 0.00 0.00 65 1011.7
20260504222727 79 2 9.0 12.0 0.00 0.00 0.00 64 1011.9
20260504222221 79 190 8.0 13.0 0.00 0.00 0.00 64 1011.8
20260504221058 79 2 10.0 13.0 0.00 0.00 0.00 63 1011.8
20260504215942 80 2 8.0 12.0 0.00 0.00 0.00 63 1011.9
20260504214809 80 183 9.0 13.0 0.00 0.00 0.00 62 1012.0
20260504214258 80 2 9.0 13.0 0.00 0.00 0.00 62 1012.0
20260504213805 80 2 10.0 13.0 0.00 0.00 0.00 62 1012.0
20260504213302 80 181 10.0 14.0 0.00 0.00 0.00 63 1012.2
20260504212743 80 197 9.0 14.0 0.00 0.00 0.00 62 1012.2
20260504212235 80 2 9.0 14.0 0.00 0.00 0.00 62 1012.5
20260504211719 80 2 9.0 14.0 0.00 0.00 0.00 62 1012.6
20260504211200 80 2 9.0 13.0 0.00 0.00 0.00 62 1012.5
20260504210648 79 2 9.0 13.0 0.00 0.00 0.00 61 1012.6
20260504210130 79 192 9.0 14.0 0.00 0.00 0.00 63 1012.5
20260504205608 79 2 9.0 14.0 0.00 0.00 0.00 63 1012.6
20260504205054 80 2 9.0 14.0 0.00 0.00 0.00 63 1012.6
20260504204559 80 2 8.0 14.0 0.00 0.00 0.00 62 1012.7
20260504204056 80 2 8.0 12.0 0.00 0.00 0.00 63 1012.9
20260504203558 80 2 8.0 12.0 0.00 0.00 0.00 61 1013.0
20260504201119 79 2 9.0 12.0 0.00 0.00 0.00 62 1013.1